Terug naar catalogus

FENGYUN 1C DEB

ActiefPO
NORAD 35210·DEBRIS·🇨🇳 China

Gelanceerd May 10, 1999 vanaf Taiyuan Satellite Launch Center

Loading…

Volgende Passages (komende 24 uur)

TLE

VersSource: Space-Track

Epoch: Sep 14, 2026, 12:55 UTC

1 35210U 99025DPS 26257.53860359  .00003494  00000-0  11854-2 0  9998
2 35210  99.0926 281.2040 0048893 152.3749   0.9697 14.36699985940798

Volg FENGYUN 1C DEB in realtime met AllMySat

Download on the App Store